| time (UTC) | temp C | wind direction | speed KPH | gust KPH | rain 1hr cm | rain 24hr cm | rain mn cm | humidity % | barometer mb |
| 20260509173704 | 14 | 90 | 8.0 | 4.8 | 0.00 | 0.00 | 0.00 | 26 | 1015.0 |
| 20260509173204 | 14 | 90 | 8.0 | 4.8 | 0.00 | 0.00 | 0.00 | 26 | 1015.0 |
| 20260509172705 | 14 | 90 | 8.0 | 4.8 | 0.00 | 0.00 | 0.00 | 27 | 1014.4 |
| 20260509172204 | 14 | 90 | 8.0 | 4.8 | 0.00 | 0.00 | 0.00 | 27 | 1014.0 |
| 20260509171704 | 14 | 90 | 8.0 | 4.8 | 0.00 | 0.00 | 0.00 | 27 | 1014.0 |
| 20260509170704 | 15 | 90 | 8.0 | 4.8 | 0.00 | 0.00 | 0.00 | 25 | 1015.0 |
| 20260509170204 | 15 | 90 | 8.0 | 4.8 | 0.00 | 0.00 | 0.00 | 25 | 1015.0 |
| 20260509165704 | 15 | 90 | 8.0 | 4.8 | 0.00 | 0.00 | 0.00 | 25 | 1015.0 |
| 20260509165205 | 15 | 90 | 8.0 | 4.8 | 0.00 | 0.00 | 0.00 | 25 | 1015.0 |
| 20260509164703 | 15 | 90 | 8.0 | 4.8 | 0.00 | 0.00 | 0.00 | 24 | 1015.0 |
| 20260509164204 | 15 | 90 | 8.0 | 4.8 | 0.00 | 0.00 | 0.00 | 24 | 1015.0 |
| 20260509163704 | 15 | 90 | 8.0 | 4.8 | 0.00 | 0.00 | 0.00 | 24 | 1015.0 |
| 20260509163204 | 15 | 90 | 8.0 | 4.8 | 0.00 | 0.00 | 0.00 | 24 | 1015.0 |
| 20260509162704 | 15 | 90 | 8.0 | 4.8 | 0.00 | 0.00 | 0.00 | 24 | 1015.0 |
| 20260509162204 | 15 | 90 | 8.0 | 4.8 | 0.00 | 0.00 | 0.00 | 24 | 1015.0 |
| 20260509161704 | 15 | 90 | 8.0 | 4.8 | 0.00 | 0.00 | 0.00 | 24 | 1015.0 |
| 20260509161203 | 15 | 90 | 8.0 | 4.8 | 0.00 | 0.00 | 0.00 | 24 | 1014.2 |
| 20260509160203 | 15 | 90 | 8.0 | 4.8 | 0.00 | 0.00 | 0.00 | 24 | 1014.0 |
| 20260509155204 | 15 | 90 | 8.0 | 4.8 | 0.00 | 0.00 | 0.00 | 24 | 1015.0 |
| 20260509154704 | 15 | 90 | 8.0 | 4.8 | 0.00 | 0.00 | 0.00 | 24 | 1015.0 |
| 20260509154204 | 15 | 90 | 8.0 | 4.8 | 0.00 | 0.00 | 0.00 | 22 | 1015.0 |
| 20260509153704 | 15 | 90 | 8.0 | 4.8 | 0.00 | 0.00 | 0.00 | 22 | 1015.0 |
| 20260509153204 | 15 | 90 | 8.0 | 4.8 | 0.00 | 0.00 | 0.00 | 22 | 1015.0 |
| 20260509152704 | 15 | 90 | 8.0 | 4.8 | 0.00 | 0.00 | 0.00 | 22 | 1015.0 |
| 20260509152204 | 15 | 90 | 8.0 | 4.8 | 0.00 | 0.00 | 0.00 | 22 | 1015.0 |
| 20260509151704 | 15 | 90 | 8.0 | 4.8 | 0.00 | 0.00 | 0.00 | 22 | 1015.0 |
| 20260509150204 | 16 | 90 | 8.0 | 4.8 | 0.00 | 0.00 | 0.00 | 22 | 1015.0 |
| 20260509145204 | 16 | 90 | 8.0 | 4.8 | 0.00 | 0.00 | 0.00 | 21 | 1015.0 |
| 20260509144704 | 16 | 90 | 8.0 | 4.8 | 0.00 | 0.00 | 0.00 | 21 | 1015.0 |
| 20260509144204 | 16 | 90 | 8.0 | 4.8 | 0.00 | 0.00 | 0.00 | 21 | 1014.4 |
| 20260509143704 | 16 | 90 | 8.0 | 4.8 | 0.00 | 0.00 | 0.00 | 21 | 1014.0 |
| 20260509143204 | 16 | 90 | 8.0 | 4.8 | 0.00 | 0.00 | 0.00 | 19 | 1014.0 |
| 20260509142704 | 16 | 90 | 8.0 | 4.8 | 0.00 | 0.00 | 0.00 | 19 | 1014.0 |
| 20260509142205 | 16 | 90 | 8.0 | 4.8 | 0.00 | 0.00 | 0.00 | 19 | 1014.0 |
| 20260509141703 | 16 | 90 | 8.0 | 4.8 | 0.00 | 0.00 | 0.00 | 19 | 1014.0 |
| 20260509141204 | 16 | 90 | 8.0 | 4.8 | 0.00 | 0.00 | 0.00 | 16 | 1014.0 |
| 20260509140703 | 16 | 90 | 8.0 | 4.8 | 0.00 | 0.00 | 0.00 | 16 | 1014.0 |
| 20260509140204 | 16 | 90 | 8.0 | 4.8 | 0.00 | 0.00 | 0.00 | 16 | 1014.0 |
| 20260509135704 | 16 | 90 | 8.0 | 9.7 | 0.00 | 0.00 | 0.00 | 16 | 1014.0 |
| 20260509135203 | 16 | 91 | 6.4 | 8.0 | 0.00 | 0.00 | 0.00 | 16 | 1014.0 |
| 20260509134704 | 16 | 112 | 8.0 | 9.7 | 0.00 | 0.00 | 0.00 | 16 | 1014.0 |
| 20260509134204 | 16 | 112 | 4.8 | 9.7 | 0.00 | 0.00 | 0.00 | 16 | 1014.0 |
| 20260509133703 | 17 | 68 | 9.7 | 9.7 | 0.00 | 0.00 | 0.00 | 16 | 1014.0 |
| 20260509132704 | 17 | 68 | 9.7 | 9.7 | 0.00 | 0.00 | 0.00 | 16 | 1014.0 |
| 20260509132205 | 17 | 68 | 9.7 | 9.7 | 0.00 | 0.00 | 0.00 | 16 | 1014.0 |
| 20260509131204 | 17 | 68 | 9.7 | 9.7 | 0.00 | 0.00 | 0.00 | 16 | 1013.2 |
| 20260509130704 | 17 | 68 | 9.7 | 11.3 | 0.00 | 0.00 | 0.00 | 16 | 1013.0 |
| 20260509125205 | 17 | 90 | 8.0 | 9.7 | 0.00 | 0.00 | 0.00 | 16 | 1013.0 |
| 20260509124705 | 17 | 90 | 8.0 | 9.7 | 0.00 | 0.00 | 0.00 | 16 | 1013.0 |
| 20260509124203 | 17 | 68 | 8.0 | 4.8 | 0.00 | 0.00 | 0.00 | 16 | 1013.0 |
| 20260509123704 | 17 | 68 | 8.0 | 4.8 | 0.00 | 0.00 | 0.00 | 16 | 1013.0 |
| 20260509123204 | 17 | 68 | 8.0 | 4.8 | 0.00 | 0.00 | 0.00 | 16 | 1013.0 |
| 20260509122704 | 17 | 68 | 8.0 | 4.8 | 0.00 | 0.00 | 0.00 | 16 | 1012.3 |
| 20260509122205 | 17 | 68 | 8.0 | 4.8 | 0.00 | 0.00 | 0.00 | 15 | 1012.0 |
| 20260509121704 | 17 | 68 | 8.0 | 4.8 | 0.00 | 0.00 | 0.00 | 15 | 1012.0 |
| 20260509121205 | 17 | 112 | 8.0 | 4.8 | 0.00 | 0.00 | 0.00 | 15 | 1012.0 |
| 20260509120704 | 17 | 112 | 8.0 | 3.2 | 0.00 | 0.00 | 0.00 | 15 | 1012.0 |
| 20260509120204 | 18 | 112 | 8.0 | 3.2 | 0.00 | 0.00 | 0.00 | 15 | 1012.0 |
| 20260509115704 | 18 | 112 | 8.0 | 3.2 | 0.00 | 0.00 | 0.00 | 15 | 1012.8 |
| 20260509115204 | 18 | 112 | 8.0 | 3.2 | 0.00 | 0.00 | 0.00 | 15 | 1013.0 |
| 20260509114204 | 18 | 112 | 8.0 | 3.2 | 0.00 | 0.00 | 0.00 | 15 | 1013.0 |
| 20260509113704 | 18 | 112 | 8.0 | 3.2 | 0.00 | 0.00 | 0.00 | 15 | 1013.0 |
| 20260509113203 | 18 | 112 | 8.0 | 3.2 | 0.00 | 0.00 | 0.00 | 15 | 1013.0 |
| 20260509112703 | 18 | 112 | 8.0 | 3.2 | 0.00 | 0.00 | 0.00 | 15 | 1013.0 |
| 20260509112204 | 18 | 112 | 8.0 | 3.2 | 0.00 | 0.00 | 0.00 | 15 | 1013.0 |
| 20260509111704 | 18 | 112 | 8.0 | 3.2 | 0.00 | 0.00 | 0.00 | 15 | 1013.0 |
| 20260509111204 | 18 | 112 | 8.0 | 3.2 | 0.00 | 0.00 | 0.00 | 15 | 1012.3 |
| 20260509105704 | 18 | 112 | 8.0 | 3.2 | 0.00 | 0.00 | 0.00 | 15 | 1012.0 |
| 20260509104704 | 18 | 112 | 8.0 | 3.2 | 0.00 | 0.00 | 0.00 | 15 | 1012.0 |
| 20260509104203 | 19 | 112 | 8.0 | 3.2 | 0.00 | 0.00 | 0.00 | 15 | 1011.2 |
| 20260509103704 | 19 | 112 | 8.0 | 3.2 | 0.00 | 0.00 | 0.00 | 15 | 1011.0 |
| 20260509103203 | 19 | 112 | 8.0 | 3.2 | 0.00 | 0.00 | 0.00 | 15 | 1011.0 |
| 20260509102705 | 19 | 112 | 8.0 | 3.2 | 0.00 | 0.00 | 0.00 | 15 | 1010.2 |
| 20260509102204 | 20 | 112 | 8.0 | 3.2 | 0.00 | 0.00 | 0.00 | 15 | 1010.0 |
| 20260509101704 | 20 | 112 | 8.0 | 3.2 | 0.00 | 0.00 | 0.00 | 15 | 1010.0 |
| 20260509101204 | 20 | 112 | 8.0 | 3.2 | 0.00 | 0.00 | 0.00 | 15 | 1010.8 |
| 20260509100205 | 20 | 112 | 8.0 | 3.2 | 0.00 | 0.00 | 0.00 | 15 | 1011.0 |
| 20260509095704 | 20 | 112 | 8.0 | 3.2 | 0.00 | 0.00 | 0.00 | 15 | 1011.0 |
| 20260509095205 | 20 | 112 | 8.0 | 3.2 | 0.00 | 0.00 | 0.00 | 15 | 1011.0 |
| 20260509094704 | 20 | 112 | 8.0 | 3.2 | 0.00 | 0.00 | 0.00 | 15 | 1011.0 |
| 20260509094204 | 20 | 112 | 8.0 | 3.2 | 0.00 | 0.00 | 0.00 | 15 | 1010.2 |
| 20260509093704 | 21 | 112 | 8.0 | 3.2 | 0.00 | 0.00 | 0.00 | 15 | 1010.0 |
| 20260509092704 | 21 | 112 | 8.0 | 3.2 | 0.00 | 0.00 | 0.00 | 14 | 1010.0 |
| 20260509092203 | 21 | 112 | 8.0 | 3.2 | 0.00 | 0.00 | 0.00 | 14 | 1010.0 |
| 20260509091704 | 21 | 112 | 8.0 | 3.2 | 0.00 | 0.00 | 0.00 | 14 | 1010.0 |
| 20260509091203 | 21 | 112 | 8.0 | 8.0 | 0.00 | 0.00 | 0.00 | 14 | 1010.0 |
| 20260509090704 | 21 | 90 | 8.0 | 8.0 | 0.00 | 0.00 | 0.00 | 14 | 1010.0 |
| 20260509085705 | 22 | 112 | 6.4 | 9.7 | 0.00 | 0.00 | 0.00 | 14 | 1010.0 |
| 20260509085204 | 22 | 68 | 8.0 | 14.5 | 0.00 | 0.00 | 0.00 | 14 | 1010.0 |
| 20260509084703 | 22 | 95 | 9.7 | 11.3 | 0.00 | 0.00 | 0.00 | 14 | 1010.0 |
| 20260509084204 | 22 | 79 | 4.8 | 9.7 | 0.00 | 0.00 | 0.00 | 14 | 1009.2 |
| 20260509083704 | 22 | 90 | 9.7 | 9.7 | 0.00 | 0.00 | 0.00 | 14 | 1009.0 |
| 20260509083204 | 23 | 45 | 1.6 | 0.0 | 0.00 | 0.00 | 0.00 | 13 | 1009.0 |
| 20260509082205 | 23 | 97 | 6.4 | 9.7 | 0.00 | 0.00 | 0.00 | 13 | 1009.0 |
| 20260509081704 | 23 | 124 | 4.8 | 9.7 | 0.00 | 0.00 | 0.00 | 13 | 1009.0 |
| 20260509081204 | 23 | 112 | 3.2 | 8.0 | 0.00 | 0.00 | 0.00 | 13 | 1009.0 |
| 20260509080704 | 23 | 102 | 6.4 | 9.7 | 0.00 | 0.00 | 0.00 | 13 | 1009.0 |
| 20260509075704 | 24 | 90 | 4.8 | 9.7 | 0.00 | 0.00 | 0.00 | 13 | 1009.0 |
| 20260509075204 | 24 | 90 | 8.0 | 9.7 | 0.00 | 0.00 | 0.00 | 13 | 1009.0 |
| 20260509074704 | 24 | 112 | 4.8 | 19.3 | 0.00 | 0.00 | 0.00 | 13 | 1009.0 |
| 20260509073704 | 25 | 202 | 0.0 | 0.0 | 0.00 | 0.00 | 0.00 | 13 | 1009.0 |
| 20260509072704 | 25 | 202 | 0.0 | 0.0 | 0.00 | 0.00 | 0.00 | 13 | 1009.0 |
| 20260509072204 | 25 | 253 | 3.2 | 4.8 | 0.00 | 0.00 | 0.00 | 13 | 1009.0 |
| 20260509071704 | 25 | 270 | 3.2 | 4.8 | 0.00 | 0.00 | 0.00 | 13 | 1009.0 |
| 20260509071205 | 26 | 284 | 1.6 | 9.7 | 0.00 | 0.00 | 0.00 | 13 | 1008.2 |
| 20260509070704 | 25 | 260 | 1.6 | 3.2 | 0.00 | 0.00 | 0.00 | 13 | 1008.0 |
| 20260509070204 | 25 | 296 | 4.8 | 9.7 | 0.00 | 0.00 | 0.00 | 13 | 1008.0 |
| 20260509065703 | 25 | 270 | 4.8 | 11.3 | 0.00 | 0.00 | 0.00 | 13 | 1007.2 |
| 20260509065203 | 24 | 270 | 8.0 | 12.9 | 0.00 | 0.00 | 0.00 | 13 | 1007.0 |
| 20260509064704 | 25 | 264 | 4.8 | 9.7 | 0.00 | 0.00 | 0.00 | 13 | 1007.0 |
| 20260509064204 | 25 | 264 | 4.8 | 9.7 | 0.00 | 0.00 | 0.00 | 13 | 1007.0 |
| 20260509063705 | 25 | 262 | 4.8 | 9.7 | 0.00 | 0.00 | 0.00 | 13 | 1007.0 |
| 20260509062704 | 25 | 262 | 4.8 | 9.7 | 0.00 | 0.00 | 0.00 | 13 | 1006.3 |
| 20260509062203 | 25 | 253 | 4.8 | 9.7 | 0.00 | 0.00 | 0.00 | 13 | 1006.0 |
| 20260509061704 | 24 | 257 | 8.0 | 11.3 | 0.00 | 0.00 | 0.00 | 13 | 1006.0 |
| 20260509060704 | 24 | 221 | 4.8 | 9.7 | 0.00 | 0.00 | 0.00 | 13 | 1007.0 |
| 20260509055704 | 24 | 273 | 3.2 | 9.7 | 0.00 | 0.00 | 0.00 | 13 | 1006.2 |
| 20260509055204 | 24 | 257 | 4.8 | 9.7 | 0.00 | 0.00 | 0.00 | 13 | 1006.0 |
| 20260509054204 | 23 | 251 | 4.8 | 9.7 | 0.00 | 0.00 | 0.00 | 13 | 1006.0 |
| 20260509053704 | 24 | 268 | 4.8 | 11.3 | 0.00 | 0.00 | 0.00 | 13 | 1006.0 |
| 20260509053204 | 24 | 260 | 4.8 | 9.7 | 0.00 | 0.00 | 0.00 | 13 | 1006.0 |
| 20260509052705 | 23 | 252 | 8.0 | 9.7 | 0.00 | 0.00 | 0.00 | 13 | 1006.7 |
| 20260509052204 | 23 | 270 | 9.7 | 19.3 | 0.00 | 0.00 | 0.00 | 13 | 1007.0 |
| 20260509051204 | 22 | 239 | 11.3 | 12.9 | 0.00 | 0.00 | 0.00 | 14 | 1007.0 |
| 20260509050704 | 23 | 260 | 8.0 | 14.5 | 0.00 | 0.00 | 0.00 | 13 | 1007.0 |
| 20260509050206 | 23 | 217 | 4.8 | 9.7 | 0.00 | 0.00 | 0.00 | 13 | 1007.0 |
| 20260509045704 | 23 | 267 | 8.0 | 12.9 | 0.00 | 0.00 | 0.00 | 13 | 1007.0 |
| 20260509045204 | 23 | 230 | 3.2 | 8.0 | 0.00 | 0.00 | 0.00 | 13 | 1007.0 |
| 20260509044704 | 22 | 249 | 8.0 | 12.9 | 0.00 | 0.00 | 0.00 | 14 | 1007.0 |
| 20260509044204 | 22 | 266 | 9.7 | 12.9 | 0.00 | 0.00 | 0.00 | 14 | 1007.0 |
| 20260509043703 | 22 | 270 | 9.7 | 11.3 | 0.00 | 0.00 | 0.00 | 14 | 1007.0 |
| 20260509043204 | 23 | 262 | 9.7 | 14.5 | 0.00 | 0.00 | 0.00 | 13 | 1007.0 |
| 20260509042704 | 23 | 254 | 8.0 | 12.9 | 0.00 | 0.00 | 0.00 | 13 | 1007.0 |
| 20260509042204 | 23 | 257 | 8.0 | 12.9 | 0.00 | 0.00 | 0.00 | 13 | 1007.0 |
| 20260509041704 | 24 | 244 | 4.8 | 9.7 | 0.00 | 0.00 | 0.00 | 13 | 1007.0 |
| 20260509041203 | 25 | 244 | 4.8 | 11.3 | 0.00 | 0.00 | 0.00 | 13 | 1007.0 |
| 20260509040704 | 24 | 207 | 4.8 | 9.7 | 0.00 | 0.00 | 0.00 | 13 | 1007.0 |
| 20260509040204 | 24 | 230 | 4.8 | 9.7 | 0.00 | 0.00 | 0.00 | 13 | 1007.0 |
| 20260509035704 | 24 | 269 | 4.8 | 8.0 | 0.00 | 0.00 | 0.00 | 13 | 1006.4 |
| 20260509035205 | 23 | 225 | 8.0 | 9.7 | 0.00 | 0.00 | 0.00 | 13 | 1006.0 |
| 20260509034704 | 23 | 241 | 4.8 | 11.3 | 0.00 | 0.00 | 0.00 | 13 | 1006.0 |
| 20260509034204 | 23 | 299 | 8.0 | 12.9 | 0.00 | 0.00 | 0.00 | 13 | 1006.0 |
| 20260509033704 | 23 | 267 | 4.8 | 11.3 | 0.00 | 0.00 | 0.00 | 13 | 1006.0 |
| 20260509033204 | 23 | 281 | 4.8 | 12.9 | 0.00 | 0.00 | 0.00 | 13 | 1006.0 |
| 20260509032703 | 22 | 260 | 8.0 | 12.9 | 0.00 | 0.00 | 0.00 | 14 | 1006.8 |
| 20260509032204 | 23 | 270 | 3.2 | 9.7 | 0.00 | 0.00 | 0.00 | 13 | 1007.0 |
| 20260509031705 | 23 | 256 | 8.0 | 16.1 | 0.00 | 0.00 | 0.00 | 13 | 1007.0 |
| 20260509031203 | 23 | 270 | 11.3 | 12.9 | 0.00 | 0.00 | 0.00 | 13 | 1006.3 |
| 20260509030704 | 23 | 275 | 8.0 | 11.3 | 0.00 | 0.00 | 0.00 | 13 | 1006.0 |
| 20260509030203 | 23 | 270 | 4.8 | 9.7 | 0.00 | 0.00 | 0.00 | 13 | 1006.0 |
| 20260509025704 | 23 | 202 | 6.4 | 12.9 | 0.00 | 0.00 | 0.00 | 13 | 1006.8 |
| 20260509024704 | 23 | 216 | 8.0 | 12.9 | 0.00 | 0.00 | 0.00 | 13 | 1007.0 |
| 20260509024205 | 23 | 248 | 4.8 | 9.7 | 0.00 | 0.00 | 0.00 | 13 | 1007.0 |
| 20260509023204 | 22 | 216 | 8.0 | 11.3 | 0.00 | 0.00 | 0.00 | 13 | 1007.0 |
| 20260509022704 | 22 | 265 | 8.0 | 12.9 | 0.00 | 0.00 | 0.00 | 14 | 1007.0 |
| 20260509022204 | 23 | 274 | 8.0 | 12.9 | 0.00 | 0.00 | 0.00 | 13 | 1007.0 |
| 20260509021704 | 23 | 181 | 1.6 | 4.8 | 0.00 | 0.00 | 0.00 | 13 | 1007.0 |
| 20260509020704 | 23 | 115 | 4.8 | 9.7 | 0.00 | 0.00 | 0.00 | 13 | 1007.0 |
| 20260509020204 | 23 | 248 | 4.8 | 4.8 | 0.00 | 0.00 | 0.00 | 13 | 1007.0 |
| 20260509015704 | 23 | 251 | 4.8 | 8.0 | 0.00 | 0.00 | 0.00 | 13 | 1007.0 |
| 20260509015204 | 23 | 240 | 4.8 | 12.9 | 0.00 | 0.00 | 0.00 | 13 | 1007.0 |
| 20260509014704 | 22 | 60 | 3.2 | 4.8 | 0.00 | 0.00 | 0.00 | 14 | 1007.0 |
| 20260509014204 | 22 | 225 | 4.8 | 9.7 | 0.00 | 0.00 | 0.00 | 14 | 1007.0 |
| 20260509013204 | 22 | 249 | 3.2 | 9.7 | 0.00 | 0.00 | 0.00 | 14 | 1007.0 |
| 20260509012704 | 21 | 246 | 8.0 | 12.9 | 0.00 | 0.00 | 0.00 | 14 | 1007.0 |
| 20260509012204 | 22 | 263 | 6.4 | 12.9 | 0.00 | 0.00 | 0.00 | 14 | 1007.0 |
| 20260509011704 | 22 | 237 | 9.7 | 9.7 | 0.00 | 0.00 | 0.00 | 14 | 1007.0 |
| 20260509010704 | 21 | 225 | 9.7 | 9.7 | 0.00 | 0.00 | 0.00 | 14 | 1008.0 |
| 20260509010204 | 22 | 273 | 8.0 | 14.5 | 0.00 | 0.00 | 0.00 | 14 | 1008.0 |
| 20260509005704 | 22 | 248 | 8.0 | 11.3 | 0.00 | 0.00 | 0.00 | 14 | 1007.2 |
| 20260509005204 | 22 | 264 | 4.8 | 11.3 | 0.00 | 0.00 | 0.00 | 13 | 1007.0 |
| 20260509004704 | 22 | 258 | 8.0 | 9.7 | 0.00 | 0.00 | 0.00 | 14 | 1007.0 |
| 20260509004204 | 22 | 270 | 3.2 | 8.0 | 0.00 | 0.00 | 0.00 | 14 | 1007.0 |
| 20260509003705 | 22 | 191 | 4.8 | 11.3 | 0.00 | 0.00 | 0.00 | 14 | 1007.0 |
| 20260509003204 | 22 | 212 | 4.8 | 9.7 | 0.00 | 0.00 | 0.00 | 14 | 1007.0 |
| 20260509002704 | 22 | 3 | 3.2 | 9.7 | 0.00 | 0.00 | 0.00 | 14 | 1007.0 |
| 20260509002204 | 22 | 202 | 6.4 | 8.0 | 0.00 | 0.00 | 0.00 | 14 | 1007.0 |
| 20260509001204 | 22 | 270 | 4.8 | 9.7 | 0.00 | 0.00 | 0.00 | 14 | 1007.0 |
| 20260509000704 | 21 | 270 | 9.7 | 9.7 | 0.00 | 0.00 | 0.00 | 14 | 1007.0 |
| 20260509000205 | 22 | 270 | 8.0 | 8.0 | 0.00 | 0.00 | 0.00 | 14 | 1007.0 |
| 20260508235704 | 23 | 248 | 3.2 | 4.8 | 0.00 | 0.00 | 0.00 | 13 | 1007.0 |
| 20260508235204 | 23 | 277 | 3.2 | 4.8 | 0.00 | 0.00 | 0.00 | 13 | 1007.0 |
| 20260508234704 | 23 | 45 | 0.0 | 0.0 | 0.00 | 0.00 | 0.00 | 13 | 1007.0 |
| 20260508234204 | 23 | 180 | 0.0 | 1.6 | 0.00 | 0.00 | 0.00 | 13 | 1007.0 |
| 20260508233704 | 23 | 202 | 0.0 | 4.8 | 0.00 | 0.00 | 0.00 | 13 | 1007.0 |
| 20260508232705 | 23 | 315 | 0.0 | 0.0 | 0.00 | 0.00 | 0.00 | 13 | 1007.0 |
| 20260508231704 | 23 | 270 | 3.2 | 4.8 | 0.00 | 0.00 | 0.00 | 13 | 1007.0 |
| 20260508231204 | 23 | 22 | 1.6 | 4.8 | 0.00 | 0.00 | 0.00 | 13 | 1006.2 |
| 20260508230703 | 22 | 45 | 1.6 | 3.2 | 0.00 | 0.00 | 0.00 | 14 | 1006.0 |
| 20260508230203 | 22 | 90 | 3.2 | 4.8 | 0.00 | 0.00 | 0.00 | 14 | 1006.0 |
| 20260508225205 | 21 | 112 | 4.8 | 4.8 | 0.00 | 0.00 | 0.00 | 14 | 1006.0 |
| 20260508224703 | 21 | 112 | 4.8 | 4.8 | 0.00 | 0.00 | 0.00 | 14 | 1006.0 |
| 20260508223705 | 20 | 90 | 9.7 | 9.7 | 0.00 | 0.00 | 0.00 | 15 | 1007.0 |
| 20260508223204 | 20 | 90 | 9.7 | 9.7 | 0.00 | 0.00 | 0.00 | 15 | 1007.0 |
| 20260508222704 | 20 | 90 | 9.7 | 9.7 | 0.00 | 0.00 | 0.00 | 15 | 1007.0 |
| 20260508222204 | 20 | 90 | 9.7 | 9.7 | 0.00 | 0.00 | 0.00 | 15 | 1007.0 |
| 20260508221705 | 20 | 88 | 8.0 | 11.3 | 0.00 | 0.00 | 0.00 | 15 | 1007.0 |
| 20260508221203 | 20 | 55 | 3.2 | 8.0 | 0.00 | 0.00 | 0.00 | 15 | 1007.0 |
| 20260508220704 | 20 | 88 | 4.8 | 9.7 | 0.00 | 0.00 | 0.00 | 15 | 1007.0 |
| 20260508220204 | 20 | 68 | 8.0 | 9.7 | 0.00 | 0.00 | 0.00 | 15 | 1007.0 |
| 20260508215704 | 20 | 77 | 4.8 | 9.7 | 0.00 | 0.00 | 0.00 | 15 | 1006.2 |
| 20260508215203 | 19 | 77 | 3.2 | 8.0 | 0.00 | 0.00 | 0.00 | 15 | 1006.0 |
| 20260508214703 | 18 | 68 | 8.0 | 9.7 | 0.00 | 0.00 | 0.00 | 15 | 1006.0 |
| 20260508213704 | 18 | 68 | 4.8 | 8.0 | 0.00 | 0.00 | 0.00 | 15 | 1006.0 |
| 20260508213204 | 18 | 67 | 3.2 | 8.0 | 0.00 | 0.00 | 0.00 | 15 | 1006.0 |
| 20260508212704 | 17 | 76 | 4.8 | 9.7 | 0.00 | 0.00 | 0.00 | 16 | 1006.0 |
| 20260508211704 | 16 | 68 | 4.8 | 9.7 | 0.00 | 0.00 | 0.00 | 16 | 1006.0 |
| 20260508211204 | 16 | 68 | 3.2 | 3.2 | 0.00 | 0.00 | 0.00 | 16 | 1005.2 |
| 20260508210705 | 16 | 68 | 3.2 | 4.8 | 0.00 | 0.00 | 0.00 | 16 | 1005.0 |
| 20260508205704 | 16 | 22 | 3.2 | 1.6 | 0.00 | 0.00 | 0.00 | 16 | 1005.0 |
| 20260508204703 | 16 | 53 | 1.6 | 0.0 | 0.00 | 0.00 | 0.00 | 16 | 1005.0 |
| 20260508204204 | 16 | 68 | 3.2 | 9.7 | 0.00 | 0.00 | 0.00 | 16 | 1005.0 |
| 20260508203704 | 16 | 68 | 9.7 | 9.7 | 0.00 | 0.00 | 0.00 | 16 | 1005.0 |
| 20260508203205 | 16 | 68 | 9.7 | 9.7 | 0.00 | 0.00 | 0.00 | 16 | 1005.0 |
| 20260508202704 | 16 | 86 | 4.8 | 9.7 | 0.00 | 0.00 | 0.00 | 16 | 1005.0 |
| 20260508202204 | 16 | 45 | 4.8 | 4.8 | 0.00 | 0.00 | 0.00 | 17 | 1005.0 |
| 20260508201704 | 16 | 68 | 0.0 | 1.6 | 0.00 | 0.00 | 0.00 | 16 | 1005.0 |
| 20260508200704 | 16 | 45 | 0.0 | 0.0 | 0.00 | 0.00 | 0.00 | 16 | 1004.0 |
| 20260508200203 | 16 | 90 | 0.0 | 0.0 | 0.00 | 0.00 | 0.00 | 16 | 1004.0 |
| 20260508195704 | 16 | 90 | 0.0 | 0.0 | 0.00 | 0.00 | 0.00 | 16 | 1004.0 |
| 20260508195204 | 16 | 90 | 0.0 | 0.0 | 0.00 | 0.00 | 0.00 | 16 | 1004.0 |
| 20260508194703 | 16 | 90 | 0.0 | 4.8 | 0.00 | 0.00 | 0.00 | 16 | 1004.0 |
| 20260508193704 | 17 | 112 | 0.0 | 3.2 | 0.00 | 0.00 | 0.00 | 16 | 1003.0 |
| 20260508193204 | 17 | 202 | 0.0 | 3.2 | 0.00 | 0.00 | 0.00 | 16 | 1003.0 |
| 20260508192704 | 17 | 183 | 1.6 | 3.2 | 0.00 | 0.00 | 0.00 | 16 | 1003.0 |
| 20260508192204 | 17 | 144 | 4.8 | 3.2 | 0.00 | 0.00 | 0.00 | 16 | 1003.0 |
| 20260508191704 | 17 | 166 | 3.2 | 8.0 | 0.00 | 0.00 | 0.00 | 16 | 1003.0 |
| 20260508191204 | 17 | 173 | 4.8 | 8.0 | 0.00 | 0.00 | 0.00 | 16 | 1003.0 |
| 20260508190704 | 17 | 192 | 4.8 | 8.0 | 0.00 | 0.00 | 0.00 | 16 | 1003.0 |
| 20260508190204 | 17 | 210 | 4.8 | 9.7 | 0.00 | 0.00 | 0.00 | 16 | 1003.0 |
| 20260508185704 | 17 | 135 | 4.8 | 8.0 | 0.00 | 0.00 | 0.00 | 16 | 1002.2 |
| 20260508185204 | 17 | 180 | 1.6 | 8.0 | 0.00 | 0.00 | 0.00 | 16 | 1002.0 |
| 20260508184705 | 17 | 204 | 4.8 | 8.0 | 0.00 | 0.00 | 0.00 | 16 | 1002.0 |
| 20260508183203 | 17 | 180 | 3.2 | 9.7 | 0.00 | 0.00 | 0.00 | 16 | 1002.0 |
| 20260508182704 | 17 | 201 | 4.8 | 9.7 | 0.00 | 0.00 | 0.00 | 16 | 1002.0 |
| 20260508182204 | 17 | 225 | 3.2 | 11.3 | 0.00 | 0.00 | 0.00 | 16 | 1002.0 |
| 20260508181703 | 17 | 158 | 4.8 | 11.3 | 0.00 | 0.00 | 0.00 | 16 | 1002.0 |
| 20260508180704 | 17 | 226 | 4.8 | 11.3 | 0.00 | 0.00 | 0.00 | 16 | 1001.0 |
| 20260508180204 | 17 | 187 | 6.4 | 12.9 | 0.00 | 0.00 | 0.00 | 15 | 1001.0 |
| 20260508175704 | 18 | 251 | 4.8 | 12.9 | 0.00 | 0.00 | 0.00 | 15 | 1000.2 |
| 20260508175204 | 18 | 164 | 4.8 | 11.3 | 0.00 | 0.00 | 0.00 | 15 | 1000.0 |
| 20260508174704 | 18 | 265 | 8.0 | 11.3 | 0.00 | 0.00 | 0.00 | 15 | 1000.0 |
| 20260508174204 | 18 | 216 | 4.8 | 12.9 | 0.00 | 0.00 | 0.00 | 15 | 1000.8 |